Stations météo

réclame
Mon MeteoGroup
St. James's Park, Grande-Bretagne (3770): Température de l'air & dewpoint: 18.02.2018 14:00:00 - 24.02.2018 14:00:00 (GMT)St. James's Park, Grande-Bretagne (3770): Température de l'air -20cm & Température de l'air -100cm: 18.02.2018 14:00:00 - 24.02.2018 14:00:00 (GMT)St. James's Park, Grande-Bretagne (3770): Quantités de précipitations: 18.02.2018 14:00:00 - 24.02.2018 14:00:00 (GMT)
Date & Time tt [°C] td [°C] tt -20cm [°C] tt -100cm [°C] rr [mm]
24.02.2018 14:00:00 5,9 -4,7 - - 0,0
24.02.2018 13:00:00 5,5 -4,3 - - 0,0
24.02.2018 12:00:00 3,8 -3,2 - - 0,0
24.02.2018 11:00:00 3,3 -3,0 - - 0,0
24.02.2018 10:00:00 2,3 -2,7 - - 0,0
24.02.2018 09:00:00 1,4 -3,3 5,2 7,2 0,0
24.02.2018 08:00:00 0,7 -3,6 - - 0,0
24.02.2018 07:00:00 0,5 -4,1 - - 0,0
24.02.2018 06:00:00 0,5 -3,8 - - 0,0
24.02.2018 05:00:00 0,6 -3,7 - - 0,0
24.02.2018 04:00:00 0,8 -3,6 - - 0,0
24.02.2018 03:00:00 0,9 -3,9 - - 0,0
24.02.2018 02:00:00 1,4 -4,0 - - 0,0
24.02.2018 01:00:00 1,9 -3,9 - - 0,0
24.02.2018 00:00:00 2,0 -3,7 - - 0,0
23.02.2018 23:00:00 2,5 -3,4 - - 0,0
23.02.2018 22:00:00 3,0 -2,8 - - 0,0
23.02.2018 21:00:00 3,0 -2,7 - - 0,0
23.02.2018 20:00:00 2,7 -2,7 - - 0,0
23.02.2018 19:00:00 2,6 -3,0 - - 0,0
23.02.2018 18:00:00 2,5 -3,7 - - 0,0
23.02.2018 17:00:00 3,2 -3,4 - - 0,0
23.02.2018 16:00:00 3,9 -3,2 - - 0,0
23.02.2018 15:00:00 4,0 -3,3 - - 0,0
23.02.2018 14:00:00 4,0 -3,2 - - 0,0
23.02.2018 13:00:00 3,9 -2,2 - - 0,0
23.02.2018 12:00:00 4,0 -3,4 - - 0,0
23.02.2018 11:00:00 3,6 -3,8 - - 0,0
23.02.2018 10:00:00 3,3 -3,5 - - 0,0
23.02.2018 09:00:00 2,7 -3,2 5,7 7,2 0,0
23.02.2018 08:00:00 1,8 -2,7 - - 0,0
23.02.2018 07:00:00 1,7 -2,8 - - 0,0
23.02.2018 06:00:00 1,0 -2,9 - - 0,0
23.02.2018 05:00:00 1,1 -2,9 - - 0,0
23.02.2018 04:00:00 1,4 -2,5 - - 0,0
23.02.2018 03:00:00 1,1 -1,8 - - 0,0
23.02.2018 02:00:00 1,3 -1,4 - - 0,0
23.02.2018 01:00:00 1,7 -1,2 - - 0,0
23.02.2018 00:00:00 2,1 -1,1 - - 0,0
22.02.2018 23:00:00 2,0 -1,4 - - 0,0
22.02.2018 22:00:00 2,2 -2,1 - - 0,0
22.02.2018 21:00:00 2,5 -2,6 - - 0,0
22.02.2018 20:00:00 3,1 -2,9 - - 0,0
22.02.2018 19:00:00 3,6 -3,4 - - 0,0
22.02.2018 18:00:00 3,7 -4,2 - - 0,0
22.02.2018 17:00:00 4,4 -4,7 - - 0,0
22.02.2018 16:00:00 5,4 -4,6 - - 0,0
22.02.2018 15:00:00 5,4 -4,9 - - 0,0
22.02.2018 14:00:00 6,2 -3,2 - - 0,0
22.02.2018 13:00:00 4,9 -2,6 - - 0,0
22.02.2018 12:00:00 4,5 -2,4 - - 0,0
22.02.2018 11:00:00 4,1 -2,3 - - 0,0
22.02.2018 10:00:00 3,8 -2,0 - - 0,0
22.02.2018 09:00:00 3,6 -1,8 6,2 7,2 0,0
22.02.2018 08:00:00 3,5 -1,5 - - 0,0
22.02.2018 07:00:00 3,3 -1,3 - - 0,0
22.02.2018 06:00:00 2,8 -1,1 - - 0,0
22.02.2018 05:00:00 3,2 -0,9 - - 0,0
22.02.2018 04:00:00 3,6 -0,1 - - 0,0
22.02.2018 03:00:00 4,2 1,4 - - 0,0
22.02.2018 02:00:00 4,5 2,1 - - 0,0
22.02.2018 01:00:00 4,7 1,9 - - 0,0
22.02.2018 00:00:00 4,7 2,0 - - 0,0
21.02.2018 23:00:00 5,0 2,2 - - 0,0
21.02.2018 22:00:00 5,3 2,2 - - 0,0
21.02.2018 21:00:00 5,6 2,3 - - 0,0
21.02.2018 20:00:00 6,0 2,5 - - 0,0
21.02.2018 19:00:00 6,0 2,4 - - 0,0
21.02.2018 18:00:00 6,0 1,9 - - 0,0
21.02.2018 17:00:00 6,3 0,9 - - 0,0
21.02.2018 16:00:00 6,4 1,1 - - 0,0
21.02.2018 15:00:00 6,4 0,7 - - 0,0
21.02.2018 14:00:00 6,6 1,2 - - 0,0
21.02.2018 13:00:00 5,9 1,0 - - 0,0
21.02.2018 12:00:00 6,0 0,8 - - 0,0
21.02.2018 11:00:00 5,6 0,9 - - 0,0
21.02.2018 10:00:00 5,5 0,6 - - 0,0
21.02.2018 09:00:00 4,3 0,9 6,5 7,0 0,0
21.02.2018 08:00:00 3,3 1,1 - - 0,0
21.02.2018 07:00:00 3,3 1,1 - - 0,0
21.02.2018 06:00:00 3,3 1,1 - - 0,0
21.02.2018 05:00:00 3,6 1,1 - - 0,0
21.02.2018 04:00:00 3,7 1,0 - - 0,0
21.02.2018 03:00:00 4,1 0,8 - - 0,0
21.02.2018 02:00:00 4,7 0,9 - - 0,0
21.02.2018 01:00:00 5,2 1,5 - - 0,0
21.02.2018 00:00:00 5,5 1,7 - - 0,0
20.02.2018 23:00:00 6,1 2,7 - - 0,0
20.02.2018 22:00:00 6,5 2,3 - - 0,0
20.02.2018 21:00:00 7,1 3,5 - - 0,0
20.02.2018 20:00:00 7,7 3,6 - - 0,0
20.02.2018 19:00:00 8,0 3,5 - - 0,0
20.02.2018 18:00:00 8,6 3,4 - - 0,2
20.02.2018 17:00:00 8,4 4,0 - - 0,0
20.02.2018 16:00:00 8,5 4,2 - - 0,0
20.02.2018 15:00:00 9,7 2,0 - - 0,0
20.02.2018 14:00:00 9,2 3,0 - - 0,0
20.02.2018 13:00:00 9,3 4,0 - - 0,0
20.02.2018 12:00:00 8,9 4,0 - - 0,0
20.02.2018 11:00:00 8,8 4,5 - - 0,2
20.02.2018 10:00:00 8,6 7,0 - - 0,0
20.02.2018 09:00:00 9,2 6,5 6,2 6,9 0,0
20.02.2018 08:00:00 9,4 7,3 - - 0,0
20.02.2018 07:00:00 9,1 7,6 - - 0,0
20.02.2018 06:00:00 8,6 7,7 - - 0,0
20.02.2018 05:00:00 8,4 7,6 - - 0,0
20.02.2018 04:00:00 8,8 7,9 - - 0,0
20.02.2018 03:00:00 9,0 7,8 - - 0,0
20.02.2018 02:00:00 9,3 8,0 - - 0,0
20.02.2018 01:00:00 9,4 8,3 - - 0,0
20.02.2018 00:00:00 9,7 8,4 - - 0,0
19.02.2018 23:00:00 10,2 8,6 - - 0,0
19.02.2018 22:00:00 10,4 8,8 - - 0,0
19.02.2018 21:00:00 10,9 8,3 - - 0,0
19.02.2018 20:00:00 11,1 8,4 - - 0,0
19.02.2018 19:00:00 11,3 8,9 - - 0,0
19.02.2018 18:00:00 11,3 9,3 - - 0,2
19.02.2018 17:00:00 11,1 9,6 - - 0,2
19.02.2018 16:00:00 11,5 9,6 - - 0,0
19.02.2018 15:00:00 11,1 10,0 - - 0,0
19.02.2018 14:00:00 9,9 9,5 - - 0,2
19.02.2018 13:00:00 9,5 9,1 - - 0,0
19.02.2018 12:00:00 8,7 8,4 - - 0,4
19.02.2018 11:00:00 8,1 7,7 - - 0,2
19.02.2018 10:00:00 7,7 7,1 - - 0,2
19.02.2018 09:00:00 7,4 6,9 5,5 6,9 0,0
19.02.2018 08:00:00 7,2 6,8 - - 0,4
19.02.2018 07:00:00 7,0 6,5 - - 0,2
19.02.2018 06:00:00 7,0 6,3 - - 0,2
19.02.2018 05:00:00 7,2 6,2 - - 0,0
19.02.2018 04:00:00 7,1 6,1 - - 0,0
19.02.2018 03:00:00 7,2 6,1 - - 0,0
19.02.2018 02:00:00 7,1 5,9 - - 0,0
19.02.2018 01:00:00 7,3 5,7 - - 0,0
19.02.2018 00:00:00 7,2 5,4 - - 0,0
18.02.2018 23:00:00 7,3 5,1 - - 0,0
18.02.2018 22:00:00 7,4 4,8 - - 0,0
18.02.2018 21:00:00 7,4 4,7 - - 0,0
18.02.2018 20:00:00 7,7 4,4 - - 0,0
18.02.2018 19:00:00 8,3 4,3 - - 0,0
18.02.2018 18:00:00 9,1 3,9 - - 0,0
18.02.2018 17:00:00 9,6 3,6 - - 0,0
18.02.2018 16:00:00 10,1 3,4 - - 0,0
18.02.2018 15:00:00 10,1 3,5 - - 0,0
18.02.2018 14:00:00 10,1 3,3 - - 0,0

tt = Température de l'air
td = dewpoint
tt -20cm = Température de l'air -20cm
tt -100cm = Température de l'air -100cm
rr = Quantités de précipitations

stations d'obs. à proximité